Weather History for Hayward, CA

Change the Weather History Date:

Saturday, November 24, 2012

  Actual Average Record
Temperature  
Mean Temperature 57 °F 53 °F  
Max Temperature 68 °F 61 °F 71 °F (2009)
Min Temperature 46 °F 46 °F 34 °F (2010)
Degree Days  
Heating Degree Days 8    
Month to date heating degree days 177  
Since 1 July heating degree days 379  
Cooling Degree Days 0    
Month to date cooling degree days 7  
Year to date cooling degree days 191  
Growing Degree Days 6 (Base 50)    
Moisture  
Dew Point 46 °F    
Average Humidity 67    
Maximum Humidity 82    
Minimum Humidity 52    
Precipitation  
Precipitation 0.00 in - 0.52 in (2001)
Month to date precipitation 1.32  
Year to date precipitation 10.78  
Since 1 July precipitation 1.66  
Sea Level Pressure  
Sea Level Pressure 30.14 in    
Wind  
Wind Speed 3 mph (North)    
Max Wind Speed 9 mph    
Max Gust Speed 12 mph    
Visibility 10 miles    
Events      
T = Trace of Precipitation, MM = Missing Value Source: NWS Daily Summary

Daily Weather History Graph

Daily Weather History Graph

Search for Another Location

Airport:

Trip Planner

Search our weather history database for the weather conditions in past years. The results will help you decide how hot, cold, wet, or windy it might be!

Date:

Astronomy

Nov. 24, 2012 Rise Set
Actual Time 6:58 AM PST 4:52 PM PST
Civil Twilight 6:29 AM PST 5:20 PM PST
Nautical Twilight 5:57 AM PST 5:52 PM PST
Astronomical Twilight 5:26 AM PST 6:24 PM PST
Moon 2:36 PM PST (11/24) 3:23 AM PST (11/24)
Length of Visible Light 10h 50m
Length of Day
9h 53m
Waxing Gibbous, 88% of the Moon is Illuminated
Nov 24
Waxing Gibbous
Nov 28
Full
Dec 6
Last Quarter
Dec 13
New
Dec 19
First Quarter

Hourly Weather History & Observations

Time (PST) Temp. Dew Point Humidity Pressure Visibility Wind Dir Wind Speed Gust Speed Precip Events Conditions
12:54 AM 50.0 °F 44.1 °F 80% 30.22 in 10.0 mi ENE 6.9 mph - N/A   Clear
1:54 AM 50.0 °F 43.0 °F 77% 30.21 in 10.0 mi ENE 4.6 mph - N/A   Clear
2:54 AM 50.0 °F 43.0 °F 77% 30.20 in 10.0 mi Calm Calm - N/A   Clear
3:54 AM 48.0 °F 42.1 °F 80% 30.19 in 10.0 mi Calm Calm - N/A   Clear
4:54 AM 48.0 °F 42.1 °F 80% 30.19 in 10.0 mi East 3.5 mph - N/A   Clear
5:54 AM 46.0 °F 41.0 °F 83% 30.19 in 10.0 mi Calm Calm - N/A   Clear
6:54 AM 46.9 °F 41.0 °F 80% 30.20 in 10.0 mi East 3.5 mph - N/A   Clear
7:54 AM 48.0 °F 43.0 °F 83% 30.20 in 10.0 mi East 3.5 mph - N/A   Clear
8:54 AM 55.0 °F 46.0 °F 72% 30.21 in 10.0 mi Calm Calm - N/A   Clear
9:54 AM 57.9 °F 48.9 °F 72% 30.21 in 10.0 mi Calm Calm - N/A   Clear
10:54 AM 61.0 °F 50.0 °F 67% 30.19 in 10.0 mi West 4.6 mph - N/A   Clear
11:54 AM 60.1 °F 51.1 °F 72% 30.16 in 10.0 mi West 4.6 mph - N/A   Clear
12:54 PM 63.0 °F 50.0 °F 63% 30.13 in 10.0 mi WNW 8.1 mph - N/A   Clear
1:54 PM 64.9 °F 50.0 °F 58% 30.10 in 10.0 mi WNW 8.1 mph - N/A   Clear
2:54 PM 66.9 °F 48.9 °F 52% 30.08 in 10.0 mi WNW 6.9 mph - N/A   Clear
3:54 PM 64.9 °F 51.1 °F 61% 30.08 in 10.0 mi West 4.6 mph - N/A   Clear
4:54 PM 61.0 °F 48.9 °F 64% 30.07 in 10.0 mi NW 6.9 mph - N/A   Clear
5:54 PM 59.0 °F 48.9 °F 69% 30.07 in 10.0 mi NW 3.5 mph - N/A   Clear
6:54 PM 57.9 °F 48.0 °F 70% 30.08 in 10.0 mi Calm Calm - N/A   Clear
7:54 PM 55.0 °F 46.9 °F 74% 30.07 in 10.0 mi ENE 4.6 mph - N/A   Clear
8:54 PM 53.1 °F 46.0 °F 77% 30.07 in 10.0 mi East 3.5 mph - N/A   Clear
9:54 PM 53.1 °F 45.0 °F 74% 30.08 in 10.0 mi Calm Calm - N/A   Clear
10:54 PM 51.1 °F 45.0 °F 80% 30.08 in 10.0 mi NE 4.6 mph - N/A   Clear
11:54 PM 51.1 °F 44.1 °F 77% 30.07 in 10.0 mi Calm Calm - N/A   Clear